Regional Weather Roundup
Issued by NWS Charleston, SC

Current Version | Previous Version | Text Only | Print | Product List | Glossary Off
Versions: 1 2 3 4 5 6 7 8 9 10 11 12 13 14 15 16 17 18 19 20 21 22 23 24 25 26 27 28 29 30 31 32 33 34 35 36 37 38 39 40 41 42 43 44 45 46 47 48 49 50

816
ASUS42 KCHS 182112
RWRCHS

REGIONAL WEATHER ROUNDUP
NATIONAL WEATHER SERVICE CHARLESTON SC
400 PM EST WED JAN 18 2017

NOTE: "FAIR" INDICATES FEW OR NO CLOUDS BELOW 12,000 FEET WITH NO
SIGNIFICANT WEATHER AND/OR OBSTRUCTIONS TO VISIBILITY.

NOT ALL STATIONS ARE QUALITY CONTROLLED. USE DATA WITH CAUTION...
ESPECIALLY DEWPOINT OBSERVATIONS.

SCZ027-030-031-034>040-042>050-182200-
...SOUTHEAST SOUTH CAROLINA...

CITY           SKY/WX    TMP DP  RH WIND       PRES   REMARKS
N CHARLESTON   PTSUNNY   78  57  48 W14       29.97S
WATERFRONT PRK   N/A     76  62  61 W7        29.96F
MOUNT PLEASANT FAIR      77  61  57 W13G21    29.97S
JOHNS ISLAND   FAIR      79  61  53 W10       29.98F
PINOPOLIS        N/A     72  61  68 W15       29.87F
MONCKS CORNER  FAIR      75  57  53 W8        29.96F
SUMMERVILLE    FAIR      77  61  57 SW9G18    29.98F
BEAUFORT MCAS  PTSUNNY   77  60  55 W12       30.02R
BEAUFORT ARPT  CLOUDY    75  61  60 W8        30.01S
HILTON HEAD IS MOSUNNY   79  61  53 W12       30.03R
WALTERBORO     CLEAR     77  59  53 W15       30.00S
ALLENDALE      FAIR      77  61  57 VRB5G14   30.00S

...SOUTHERN MIDLANDS AND PEE DEE...

CITY           SKY/WX    TMP DP  RH WIND       PRES   REMARKS
GEORGETOWN     FAIR      77  59  53 W12G18    29.95S
KINGSTREE      FAIR      77  50  38 NW15      29.95S
ORANGEBURG     SUNNY     79  54  41 W14G24    29.97F
BARNWELL       FAIR      79  61  53 W10G21    30.00S
AIKEN          FAIR      77  50  38 W14       30.03S
MANNING        FAIR      77  45  31 W8G18     29.96S
COLUMBIA       PTSUNNY   79  47  32 W16       29.97R
SUMTER         SUNNY     77  51  40 W10       29.94S
FLORENCE       SUNNY     78  50  37 NW9G20    29.95S
MYRTLE BEACH   MOSUNNY   77  55  47 NW12G17   29.95R
N MYRTLE BEACH SUNNY     76  57  51 N7G17     29.93S

$$

GAZ063-065-086>088-099>101-113>116-118-119-134>141-150-182200-
...SOUTHEAST GEORGIA...

CITY           SKY/WX    TMP DP  RH WIND       PRES   REMARKS
SAVANNAH ARPT  MOSUNNY   77  57  50 W18G28    30.04R
HUNTER AAF     SUNNY     77  60  56 W17G24    30.01F
FORT STEWART   SUNNY     76  60  56 SW10      30.03F
STATESBORO     MOSUNNY   77  62  59 W12G18    30.05R
SYLVANIA       CLOUDY   N/A N/A N/A NW15G28   30.05R
CLAXTON        FAIR      77  71  80 SW10G17   30.04F

...CSRA...CENTRAL AND FAR SOUTHEAST GEORGIA...

CITY           SKY/WX    TMP DP  RH WIND       PRES   REMARKS
THOMSON        MOSUNNY   78  59  51 W14       30.07F
AUGUSTA-BUSH   MOSUNNY   80  57  45 W12       30.00S
AUGUSTA-DANIEL SUNNY     79  53  40 W12G20    30.02R
SWAINSBORO     FAIR      75  61  60 MISG      30.06S
VIDALIA        SUNNY     79  63  57 W8        30.06F
EASTMAN        FAIR      79  44  29 W7        30.09F
HAZLEHURST     FAIR      79  60  53 W6        30.06F
ALMA           PTSUNNY   75  58  55 W9        30.08S
WAYCROSS       PTSUNNY   78  64  61 NW12      30.09S
JESUP          MOCLDY    77  57  50 W6        30.08S
BAXLEY         PTSUNNY   77  63  61 NW8       30.07F
BRUNSWICK      SUNNY     77  63  61 NW13      30.08F
SAINT SIMONS   SUNNY     76  59  55 NW8       30.07S

$$

SCZ027-028-034-036>038-045-046-048>050-GAZ119-141-182200-
...LAKE AND SUPPLEMENTAL COASTAL OBSERVATIONS...

STATION/POSITION TIME  TEMP    WIND        PRES    WAVE   SWELL
                       AIR SEA DIR/SP/G            HT/PER HT/PER/DIR
                 (UTC) (F)     (DEG/KT/KT) (MB)    (FT/S) (FT/S/D)
WINYAH BAY       1945   76     270/ 12     1013.0
LAKE MURRAY      2020   76     280/ 12/ 19 1014.2
ACE BASIN NERRS  NOT AVBL
FORT PULASKI     2048   74 57  280/ 15/ 19 1017.1R
SAPELO ISLAND    NOT AVBL

$$

ANZ835-935-AMZ111-154-330-350-352-354-370-450-454-472-182200-
...C-MAN AND BUOY OBSERVATIONS...

STATION/POSITION TIME  TEMP    WIND        PRES    WAVE   SWELL
                       AIR SEA DIR/SP/G            HT/PER HT/PER/DIR
                 (UTC) (F)     (DEG/KT/KT) (MB)    (FT/S) (FT/S/D)
BUOY 41004       1950   68 72  250/ 23/ 27 1014.8    4/ 5   2/180/ 8
BUOY 41008       1950   64 61  280/  8/  8 1018.3    1/11   2/100/11
FOLLY BEACH CMAN 2000   62     220/ 13/ 16 1016.3S
CAPERS NEARSHORE 2008   59 55  230/ 17/ 21 1014.8F
FRIPP NEARSHORE  2008   62 58  230/  8/ 10 1016.3F


STATION/POSITION TIME  TEMP    WIND        PRES    WAVE   SWELL
                       AIR SEA DIR/SP/G            HT/PER HT/PER/DIR
                 (UTC) (F)     (DEG/KT/KT) (MB)    (FT/S) (FT/S/D)
5E ST. MARYS GA  2030      63                N/A     2/10
FRYING PAN BUOY  2050   69 72  250/ 19/ 21 1013.3R   5/ 6
BUOY 41025       2050   57 71   10/ 27/ 33 1012.3R   6/ 7   3/100/14
CAPE LOOKOUT NC  2000   62     260/ 14/ 17 1011.7R
BUOY 41002       2050   72 72  260/ 19/ 23 1013.8F   7/ 7   2/100/12
BUOY 41010       NOT AVBL
ST AUGUSTINE FL  2100   77 62  280/  6/  8 1019.5F


$$




USA.gov is the U.S. government's official web portal to all federal, state and local government web resources and services.